Regional Weather Roundup
Issued by NWS

Home | Current Version | Previous Version | Graphics & Text | Print | Product List | Glossary On
Versions: 1 2 3 4 5 6 7 8 9 10 11 12 13 14 15 16 17 18 19 20 21 22 23 24 25 26 27 28 29 30 31 32 33 34 35 36 37 38 39 40 41 42 43 44 45 46 47 48 49 50
000
ASUS43 KLOT 222007
RWRIL

ILLINOIS REGIONAL WEATHER ROUNDUP
NATIONAL WEATHER SERVICE CHICAGO/ROMEOVILLE IL
300 PM CDT WED MAR 22 2017

NOTE: "FAIR" INDICATES FEW OR NO CLOUDS BELOW 12,000 FEET WITH NO
SIGNIFICANT WEATHER AND/OR OBSTRUCTIONS TO VISIBILITY.

* THESE STATIONS ARE NOT UNDER NWS QUALITY CONTROL. THEY ALSO MAY NOT
  REPORT WEATHER SUCH AS PRECIPITATION OR FOG.

ILZ001-002-007-009-015-016-024-222100-
NORTHWEST ILLINOIS

CITY           SKY/WX    TMP DP  RH WIND       PRES   REMARKS
MOLINE         SUNNY     43  17  35 SE9       30.49F
STERLING*      SUNNY     41  19  41 E12       30.51F
SAVANNA*       SUNNY     42  14  31 E12G26    30.51F
$$

ILZ003-004-008-010-011-017-018-222100-
NORTH CENTRAL ILLINOIS

CITY           SKY/WX    TMP DP  RH WIND       PRES   REMARKS
ROCKFORD       MOSUNNY   42  16  34 VRB5      30.53F
FREEPORT*      SUNNY     38  14  36 E5        30.53F WCI  35
ROCHELLE*      SUNNY     40  19  43 SE5       30.51F
DE KALB*       SUNNY     39  19  44 SE6       30.52F WCI  35
PERU*          SUNNY     38  20  48 E7        30.52F WCI  33
$$

ILZ005-006-012>014-019>023-222100-
NORTHEAST ILLINOIS

CITY           SKY/WX    TMP DP  RH WIND       PRES   REMARKS
CHICAGO-OHARE  MOSUNNY   36  18  48 E9G18     30.55F WCI  29
CHICAGO-MIDWAY MOSUNNY   34  18  52 N8G20     30.56F WCI  27
AURORA         SUNNY     40  19  43 VRB5      30.52F
LANSING*       SUNNY     33  20  57 N3        30.55F
JOLIET*        SUNNY     39  21  47 E12       30.53F WCI  32
WAUKEGAN       MOSUNNY   31  20  63 NE9       30.56F WCI  23
DUPAGE AIRPORT SUNNY     37  18  46 NE6       30.52F WCI  32
KANKAKEE*      SUNNY     39  16  40 E9        30.52F WCI  33
WHEELING       SUNNY     32  18  56 E8        30.57F WCI  25
MORRIS*        SUNNY     40  19  42 NE7       30.52F
ROMEOVILLE*    SUNNY     37  23  57 E6        30.53F WCI  32
NORTHERLY ISL    N/A     30  18  60 NE9         N/A  WCI  22
$$

LMZ740>746-222100-
SOUTHERN LAKE MICHIGAN

STATION/POSITION SKY/WX   TEMP    WIND        PRES    VSBY  WAVE
                          AIR SEA DIR/SP/G                  HT/PER
                          (F)     (DEG/KT/KT) (MB)    (MI)  (FT/S)
HARRISON CRIB              28      70/  9/ 10   N/A
BURNHAM HARBOR             30      40/  9/ 10   N/A
CALUMET HARBOR             29      40/  9/ 15 1034.2F
BURNS HARBOR               28      10/  6/ 10 1035.2F
MICHIGAN CITY              29     350/ 11/ 13   N/A
$$

ILZ025>027-034>036-040-047-049-050-058-095>099-222100-
WEST-CENTRAL ILLINOIS

CITY           SKY/WX    TMP DP  RH WIND       PRES   REMARKS
QUINCY         CLOUDY    45  16  31 SE8       30.42F
GALESBURG*     SUNNY     42  23  47 E8G16     30.47F
MACOMB*        SUNNY     44  16  32 E10G17    30.48F
JACKSONVILLE*  SUNNY     46  12  25 E12G23    30.44F
PITTSFIELD*    CLOUDY    47  17  29 E10G16    30.43F
$$

ILZ028>032-037-038-041>044-048-051>054-059>061-222100-
CENTRAL ILLINOIS

CITY           SKY/WX    TMP DP  RH WIND       PRES   REMARKS
PONTIAC        SUNNY     39  22  50 E8G16     30.52F WCI  34
BLOOMINGTON    SUNNY     41  17  38 E16       30.49F
DECATUR        SUNNY     44  14  29 E12       30.46F
PEORIA         SUNNY     42  19  39 NE10      30.49F
LACON*         MOSUNNY   40  24  53 E10       30.50F
LINCOLN*       SUNNY     43  14  31 E12G21    30.47F
SPRINGFIELD    SUNNY     48  12  23 E15G21    30.46F
TAYLORVILLE    SUNNY     45  11  25 E15       30.44F
$$

ILZ033-039-045-046-055>057-062-063-222100-
EAST-CENTRAL ILLINOIS

CITY           SKY/WX    TMP DP  RH WIND       PRES   REMARKS
CHAMPAIGN      SUNNY     43  16  33 E13G22    30.47F
RANTOUL*       SUNNY     42  22  46 E14       30.49F
MATTOON        SUNNY     44  16  32 NE13G23   30.43F
PARIS*         SUNNY     41  22  47 NE13G18   30.47F
$$

ILZ079-100>102-222100-
SOUTHWEST ILLINOIS

CITY           SKY/WX    TMP DP  RH WIND       PRES   REMARKS
ALTON          MOSUNNY   48  16  27 NE10G16   30.42F
BELLEVILLE     SUNNY     50  19  28 E14       30.39F
CAHOKIA*       SUNNY     51  18  27 E9        30.40F
SPARTA*        MOSUNNY   49  23  35 NE6       30.40F
$$

ILZ064>066-069>071-074>076-080>082-084>086-088>090-092>094-222100-
SOUTH-CENTRAL ILLINOIS

CITY           SKY/WX    TMP DP  RH WIND       PRES   REMARKS
CARBONDALE     MOSUNNY   51  24  34 E12G21    30.38F
CAIRO*         SUNNY     55  28  35 NE12      30.34F
EFFINGHAM*     SUNNY     47  22  37 N5        30.44F
MARION         MOSUNNY   55  21  26 NE14      30.38F
MT. VERNON     SUNNY     49  21  33 E9G17     30.40F
CENTRALIA*     SUNNY     48  22  36 NE10G16   30.40F
SALEM*         SUNNY     48  17  29 E13       30.41F
METROPOLIS*    SUNNY     55  24  30 E13       30.35F
$$

ILZ067-068-072-073-078-083-087-091-222100-
SOUTHEAST ILLINOIS

CITY           SKY/WX    TMP DP  RH WIND       PRES   REMARKS
LAWRENCEVILLE  LGT RAIN  50  16  25 NE17      30.42F
FLORA*         SUNNY     49  19  31 E13G18    30.42F
FAIRFIELD*     SUNNY     48  22  36 NE5       30.40F
HARRISBURG*    SUNNY     51  25  36 NE10      30.39F
ROBINSON*      SUNNY     47  17  29 NE13      30.44F
CARMI*         SUNNY     50  23  35 NE13      30.39F
$$

ABBREVIATIONS USED IN REMARKS
   TC - TEMPERATURE IN CELSIUS
  WCI - WIND CHILL INDEX
   HX - HEAT INDEX
  VSB - VISIBILITY
$$





USA.gov is the U.S. government's official web portal to all federal, state and local government web resources and services.